Regional Weather Roundup
Issued by NWS

Home | Current Version | Previous Version | Graphics & Text | Print | Product List | Glossary On
Versions: 1 2 3 4 5 6 7 8 9 10 11 12 13 14 15 16 17 18 19 20 21 22 23 24 25 26 27 28 29 30 31 32 33 34 35 36 37 38 39 40 41 42 43 44 45 46 47 48 49 50
000
ASUS45 KPSR 192010
RWRAZ

ARIZONA REGIONAL HOURLY WEATHER ROUNDUP
NATIONAL WEATHER SERVICE PHOENIX AZ
100 PM MST FRI SEP 19 2014

NOTE: FAIR INDICATES FEW OR NO CLOUDS BELOW 12,000 FEET WITH NO
SIGNIFICANT WEATHER AND/OR OBSTRUCTIONS TO VISIBILITY.

AZZ001>003-036-192100-
NORTHWEST ARIZONA

CITY           SKY/WX    TMP DP  RH WIND       PRES   REMARKS
BULLHEAD CITY  SUNNY     97  48  19 S12       29.79F
KINGMAN        SUNNY     89  44  20 W10G16    29.96F
$$

AZZ004>008-015-016-018-192100-
NORTH CENTRAL ARIZONA

CITY           SKY/WX    TMP DP  RH WIND       PRES   REMARKS
GRAND CANYON   MOSUNNY   77  52  41 W9        30.16F
PRESCOTT       MOSUNNY   83  50  31 W7        30.06F
FLAGSTAFF      LGT RAIN  59  57  93 W5        30.21F
PAYSON         MOSUNNY   79  63  57 W8        30.09S
PAGE           MOSUNNY   89  45  21 NW5       29.98F
$$

AZZ009>014-017-192100-
NORTHEAST ARIZONA

CITY           SKY/WX    TMP DP  RH WIND       PRES   REMARKS
WINSLOW        MOSUNNY   85  55  35 VRB3      30.03F
SAINT JOHNS    SUNNY     81  52  36 SE8       30.07F
WINDOW ROCK    LGT RAIN  72  48  42 E10G20    30.15S
SHOW LOW       PTSUNNY   73  48  40 NE5       30.15F
$$

AZZ023-192100-
GREATER PHOENIX AREA

CITY           SKY/WX    TMP DP  RH WIND       PRES   REMARKS
PHOENIX        MOSUNNY   94  66  39 SW7       29.80F
BUCKEYE          N/A     91  59  33 S6        29.82F
GLENDALE       MOSUNNY   91  66  43 CALM      29.82F
LUKE AFB       SUNNY     92  68  45 CALM      29.80F
DEER VALLEY    SUNNY     91  65  41 SW6       29.82F
SCOTTSDALE     MOSUNNY   91  67  44 VRB3      29.84F
MESA-GATEWAY   MOSUNNY   91  68  46 W7        29.84
CHANDLER       PTSUNNY   91  68  46 VRB5      29.82F
$$

AZZ027-028-192100-
SOUTHWEST MARICOPA COUNTY AND PINAL COUNTY

CITY           SKY/WX    TMP DP  RH WIND       PRES   REMARKS
CASA GRANDE    MOSUNNY   91  66  43 CALM      29.83F
$$

AZZ503-504-507>509-192100-
SOUTHEAST ARIZONA

CITY           SKY/WX    TMP DP  RH WIND       PRES   REMARKS
TUCSON         MOSUNNY   86  65  49 CALM      29.92F
DAVIS-MONTHAN  MOSUNNY   86  66  51 VRB1      29.90F
RYAN FIELD       N/A     88  68  51 NW6       29.91F
NOGALES        RAIN      72  65  78 NE9       29.99F
SIERRA VISTA   PTSUNNY   79  63  57 VRB3      30.04F
DOUGLAS        PTSUNNY   81  63  54 CALM      30.00F
SAFFORD        MOSUNNY   84  63  49 VRB6      29.92F
$$

AZZ020-021-025-026-031-192100-
SOUTHWEST ARIZONA

CITY           SKY/WX    TMP DP  RH WIND       PRES   REMARKS
YUMA           MOSUNNY   97  50  20 VRB5      29.77F
$$

CAZ031-033-041-043-047-048-061-192100-
SOUTHERN CALIFORNIA

CITY           SKY/WX    TMP DP  RH WIND       PRES   REMARKS
DOWNTOWN L.A.  PTSUNNY   80  60  50 VRB3      29.87F
L.A. AIRPORT   MOSUNNY   75  62  64 W14       29.89F
SAN DIEGO      MOSUNNY   77  61  57 NW12      29.89F
BURBANK        MOSUNNY   79  58  48 SE9G17    29.88F
ONTARIO        MOSUNNY   79  58  48 VRB7      29.88F
RIVERSIDE      SUNNY     79  59  50 VRB5      29.88F
PALM SPRINGS   SUNNY     94  53  25 NW8       29.79F
EL CENTRO NAS  MOSUNNY   95  52  23 E6        29.75F
IMPERIAL       SUNNY     94  53  25 SW7       29.75F
BLYTHE         SUNNY     94  55  26 VRB5      29.78F
NEEDLES        SUNNY     99  46  16 SW14      29.79F
$$

NVZ020-UTZ003-192100-
SOUTHERN NEVADA-UTAH

CITY           SKY/WX    TMP DP  RH WIND       PRES   REMARKS
LAS VEGAS      MOSUNNY   91  45  20 SW3       29.83F
SALT LAKE CITY MOSUNNY   79  51  37 NW9       30.04F
$$

NMZ009-TXZ055-192100-
NEW MEXICO-WEST TEXAS

CITY           SKY/WX    TMP DP  RH WIND       PRES   REMARKS
ALBUQUERQUE    PTSUNNY   78  54  43 SW5       30.05F
EL PASO        PTSUNNY   79  61  53 W8        29.97F
$$


........................KEY........................
SKY/WX - SKY CONDITION/WEATHER
TMP    - TEMPERATURE IN FAHRENHEIT
DP     - DEW POINT IN FAHRENHEIT
RH     - RELATIVE HUMIDITY IN PERCENT
WIND   - DIRECTION AND SPEED IN MILES PER HOUR (MPH)
VRB    - VARIABLE WIND DIRECTION
PRES   - MEAN SEA LEVEL PRESSURE IN INCHES OF MERCURY
         F - FALLING PRESSURE   R - RISING PRESSURE
         S - STEADY PRESSURE
VSB    - VISIBILITY IN MILES
HX     - HEAT INDEX IN FAHRENHEIT
WCI    - WIND CHILL INDEX IN FAHRENHEIT
TC     - TEMPERATURE IN CELSIUS WHICH IS ALSO KNOWN AS
         TEMPERATURE IN CENTIGRADE
AFB    - AIR FORCE BASE
         LUKE AFB IS LUKE AIR FORCE BASE
         DAVIS-MONTHAN IS DAVIS-MONTHAN AIR FORCE BASE
NAS    - NAVAL AIR STATION
         EL CENTRO NAS IS EL CENTRO NAVAL AIR STATION
N/A    - NOT AVAILABLE



USA.gov is the U.S. government's official web portal to all federal, state and local government web resources and services.